Погода в Соснах

Россия / Московская область     55°43′54″N   37°03′29″E
темп.,
°C
ветер,
м/с
пор.,
м/с
влажн.,
%
обл.,
%
осадки,
мм/ч
давл.,
гПа
погр.,
м
24 июля, сб
сб2400:00+11сз2588100 0.0 101077
03:00+11сз238593 0.0 101153
06:00+13сз2685100 0.0 1011225
09:00+14ссз367466 0.0 1013438
12:00+20ссз453889 0.0 10132444
15:00+18с454660 0.0 10141049
18:00+19с34404 0.0 10162012
21:00+15всв1253100 0.0 101727
25 июля, вс
вс2500:00+15ююз2255100 0.0 101844
03:00+14юз2258100 0.0 101932
06:00+14юз2462100 0.0 102089
09:00+16зюз225892 0.0 1021251
12:00+19з2344100 0.0 10221042
15:00+22зюз343643 0.0 10212283
18:00+19сз235674 0.0 102163
21:00+15з11680 0.0 102211
26 июля, пн
пн2600:00+13юз117437 0.0 102311
03:00+15юз236270 0.0 102345
06:00+16юз2364100 0.0 102456
09:00+19зюз135596 0.0 1024299
12:00+25зюз233673 0.0 10242506
15:00+24зсз224059 0.0 10231726
18:00+23ююз244735 0.0 1023800
21:00+19з236465 0.0 102372
27 июля, вт
вт2700:00+16зюз23775 0.0 102442
03:00+14зюз22866 0.0 102435
06:00+16зюз24835 0.0 102496
09:00+22зюз245723 0.0 1023504
12:00+26зюз33415 0.0 10221946
15:00+24юз115499 0.0 102137
18:00+25ююз225340 0.0 1021328
21:00+19юв227213 0.0 102116
28 июля, ср
ср2800:00+17зюз227856 0.0 102119
03:00+16юз23855 0.0 102049
06:00+17юз25824 0.0 1019126
09:00+24юз34570 0.0 1018527
12:00+27юз444215 0.0 10162391
15:00+27зюз454477 0.0 10141378
18:00+26ююз3648100 0.0 1013798
21:00+21ююз2263100 0.0 101240